Location: Unspecified
(37.0384°N, 0.0000°E)
Time: 10:45:18
(UTC+00:00)

Transit 2A - Visible Passes

Search period start: 04 April 2026 00:00
Search period end: 14 April 2026 00:00
Orbit: 591 x 953 km, 66.7° (Epoch: 29 March)

Date Brightness Start Highest point End Pass type
(mag) Time Alt. Az. Time Alt. Az. Time Alt. Az.
4 Apr 8.4 01:30:35 24° NNE 01:30:35 24° NNE 01:32:48 10° NNE visible
4 Apr 8.2 03:10:54 18° NW 03:10:54 18° NW 03:14:32 10° N visible
5 Apr 8.8 00:55:04 16° NE 00:55:04 16° NE 00:56:17 10° NE visible
5 Apr 8.1 02:35:23 23° NNW 02:35:23 23° NNW 02:38:42 10° N visible
6 Apr 9.1 00:19:30 10° NE 00:19:30 10° NE 00:19:36 10° NE visible
6 Apr 8.2 01:59:49 25° N 01:59:49 25° N 02:02:40 10° NNE visible
7 Apr 8.4 01:24:14 23° N 01:24:14 23° N 01:26:29 10° NNE visible
7 Apr 8.7 03:04:33 10° NW 03:04:53 10° NW 03:05:50 10° NNW visible
8 Apr 8.7 00:48:36 19° NNE 00:48:36 19° NNE 00:50:12 10° NNE visible
8 Apr 8.6 02:28:54 14° NW 02:28:54 14° NW 02:31:21 10° N visible
9 Apr 8.9 00:12:56 14° NNE 00:12:56 14° NNE 00:13:46 10° NNE visible
9 Apr 8.5 01:53:14 18° NNW 01:53:14 18° NNW 01:55:44 10° N visible
10 Apr 8.5 01:17:31 20° N 01:17:31 20° N 01:19:49 10° N visible
11 Apr 8.6 00:41:46 20° N 00:41:46 20° N 00:43:43 10° NNE visible
12 Apr 8.7 00:05:58 18° NNE 00:05:58 18° NNE 00:07:30 10° NNE visible
12 Apr 8.8 01:46:16 11° NW 01:46:16 11° NW 01:47:44 10° NNW visible
12 Apr 8.8 23:30:07 16° NNE 23:30:07 16° NNE 23:31:10 10° NNE visible
13 Apr 8.7 01:10:25 15° NNW 01:10:25 15° NNW 01:12:35 10° N visible
13 Apr 8.9 22:54:13 12° NE 22:54:13 12° NE 22:54:42 10° NNE visible
